Regional Weather Roundup
Issued by NWS

Home | Current Version | Previous Version | Text Only | Print | Product List | Glossary Off
Versions: 1 2 3 4 5 6 7 8 9 10 11 12 13 14 15 16 17 18 19 20 21 22 23 24 25 26 27 28 29 30 31 32 33 34 35 36 37 38 39 40 41 42 43 44 45 46 47 48 49 50

000
ASUS43 KLOT 281421
RWRIL

ILLINOIS REGIONAL WEATHER ROUNDUP
NATIONAL WEATHER SERVICE CHICAGO/ROMEOVILLE IL
900 AM CDT THU MAY 28 2015

NOTE: "FAIR" INDICATES FEW OR NO CLOUDS BELOW 12,000 FEET WITH NO
SIGNIFICANT WEATHER AND/OR OBSTRUCTIONS TO VISIBILITY.

* THESE STATIONS ARE NOT UNDER NWS QUALITY CONTROL. THEY ALSO MAY NOT
  REPORT WEATHER SUCH AS PRECIPITATION OR FOG.

ILZ001-002-007-009-015-016-024-281500-
NORTHWEST ILLINOIS

CITY           SKY/WX    TMP DP  RH WIND       PRES   REMARKS
MOLINE         MOSUNNY   72  59  63 S12       30.18S
STERLING*      SUNNY     73  61  64 S5        30.21S
SAVANNA*       SUNNY     72  58  62 S3        30.20R
$$

ILZ003-004-008-010-011-017-018-281500-
NORTH CENTRAL ILLINOIS

CITY           SKY/WX    TMP DP  RH WIND       PRES   REMARKS
ROCKFORD       MOSUNNY   71  60  68 VRB3      30.22R
FREEPORT*      SUNNY     73  59  62 S6        30.22R
ROCHELLE*      SUNNY     71  60  67 S6        30.22R
DE KALB*       SUNNY     69  58  68 S5        30.23R
PERU*          SUNNY     71  57  61 S7        30.22R
$$

ILZ005-006-012>014-019>023-281500-
NORTHEAST ILLINOIS

CITY           SKY/WX    TMP DP  RH WIND       PRES   REMARKS
CHICAGO-OHARE  MOSUNNY   71  56  58 CALM      30.20S
CHICAGO-MIDWAY MOSUNNY   74  57  55 CALM      30.21R
AURORA         SUNNY     72  58  61 S5        30.22R
LANSING*       SUNNY     71  56  58 S3        30.22R
JOLIET*        SUNNY     71  61  68 CALM      30.22R
WAUKEGAN       SUNNY     71  58  63 SW8       30.21R
DUPAGE AIRPORT SUNNY     70  57  63 CALM      30.21R
KANKAKEE*      SUNNY     72  59  64 SE7       30.23R
WHEELING       SUNNY     72  56  57 CALM      30.23R
MORRIS*        SUNNY     70  57  63 S3        30.21R
ROMEOVILLE*    SUNNY     71  59  66 S3        30.22R
NORTHERLY ISL    N/A     63  56  78 SE3         N/A
$$

LMZ740>746-281500-
SOUTHERN LAKE MICHIGAN

STATION/POSITION SKY/WX   TEMP    WIND        PRES    VSBY  WAVE
                          AIR SEA DIR/SP/G                  HT/PER
                          (F)     (DEG/KT/KT) (MB)    (MI)  (FT/S)
SOUTHERN BUOY              45 38  200/ 10/ 12 1023.7R         0
HARRISON CRIB              64     130/ 11/ 11   N/A
BURNHAM HARBOR             64     110/  2/  6   N/A
CALUMET HARBOR             67     200/  3/  4   N/A
BURNS HARBOR               66     180/  5/  9 1023.7R
MICHIGAN CITY              67     140/  9/ 10   N/A
MICHIGAN CITY 6N           63 53  190/  4/  6   N/A           1
ST. JOSEPH                 58 56  260/  8/ 10   N/A           0
$$

ILZ025>027-034>036-040-047-049-050-058-095>099-281500-
WEST-CENTRAL ILLINOIS

CITY           SKY/WX    TMP DP  RH WIND       PRES   REMARKS
QUINCY         PTSUNNY   72  56  57 SE13      30.16S
GALESBURG*     SUNNY     72  58  62 SE8       30.20S
MACOMB*        SUNNY     72  60  66 SE9       30.21S
JACKSONVILLE*  MOSUNNY   74  60  60 E10       30.18S
PITTSFIELD*    PTSUNNY   73  58  60 E9        30.17F
$$

ILZ028>032-037-038-041>044-048-051>054-059>061-281500-
CENTRAL ILLINOIS

CITY           SKY/WX    TMP DP  RH WIND       PRES   REMARKS
PONTIAC        SUNNY     72  59  62 S7        30.23S
BLOOMINGTON    SUNNY     72  58  61 SE9       30.23S
DECATUR        SUNNY     73  56  54 E15       30.21S
PEORIA         SUNNY     73  56  54 SE5       30.21R
LACON*         SUNNY     70  58  64 CALM      30.21R
LINCOLN*       SUNNY     74  55  50 E10       30.19S
SPRINGFIELD    SUNNY     74  57  55 SE12      30.20R
TAYLORVILLE    SUNNY     70  57  64 E9        30.20R
$$

ILZ033-039-045-046-055>057-062-063-281500-
EAST-CENTRAL ILLINOIS

CITY           SKY/WX    TMP DP  RH WIND       PRES   REMARKS
CHAMPAIGN      SUNNY     72  54  53 E14       30.21S
DANVILLE*      SUNNY     71  53  52 E7        30.20R
RANTOUL*       SUNNY     74  55  51 E10       30.22S
PARIS*         SUNNY     72  55  55 E9        30.22S
$$

ILZ079-100>102-281500-
SOUTHWEST ILLINOIS

CITY           SKY/WX    TMP DP  RH WIND       PRES   REMARKS
ALTON          SUNNY     72  64  78 E8        30.17S
BELLEVILLE     SUNNY     73  66  77 E6        30.15F
CAHOKIA*       MOSUNNY   76  65  68 SE7       30.15F
SPARTA*        MOSUNNY   73  68  86 SE3       30.18S
$$

ILZ064>066-069>071-074>076-080>082-084>086-088>090-092>094-281500-
SOUTH-CENTRAL ILLINOIS

CITY           SKY/WX    TMP DP  RH WIND       PRES   REMARKS
CARBONDALE     PTSUNNY   73  68  84 SE6       30.17F
CAIRO*         MOSUNNY   72  67  83 CALM      30.18R
EFFINGHAM*     SUNNY     73  58  60 NE5       30.20F
MARION         CLOUDY    73  70  88 MISG      30.19S
MT. VERNON     CLOUDY    75  66  73 S5        30.19S
CENTRALIA*     SUNNY     74  65  72 E5        30.17F
SALEM*         SUNNY     74  67  76 SE7       30.18S
METROPOLIS*    MOSUNNY   73  67  79 CALM      30.18F
$$

ILZ067-068-072-073-078-083-087-091-281500-
SOUTHEAST ILLINOIS

CITY           SKY/WX    TMP DP  RH WIND       PRES   REMARKS
LAWRENCEVILLE  PTSUNNY   74  65  73 E6        30.19S
FLORA*         FOG       68  67  98 CALM      30.19S VSB 1
FAIRFIELD*     MOSUNNY   73  68  85 S3        30.17S
HARRISBURG*    CLOUDY    68  68 100 CALM      30.20S FOG
ROBINSON*      MOSUNNY   74  63  68 E7        30.21R
CARMI*         MOSUNNY   73  64  73 S3        30.19S
$$

ABBREVIATIONS USED IN REMARKS
   TC - TEMPERATURE IN CELSIUS
  WCI - WIND CHILL INDEX
   HX - HEAT INDEX
  VSB - VISIBILITY
$$




USA.gov is the U.S. government's official web portal to all federal, state and local government web resources and services.